Hourly Data Report for September 05, 2017

All times are specified in Local Standard Time (LST). Add 1 hour to adjust for Daylight Saving Time where and when it is observed.

FREDERICTON
NEW BRUNSWICK

45°52'08.000" N
66°32'14.000" W
20.70 m
8101505
71700
YFC

Related Data

No related data is available for this station

Download Data

Hourly Data (September 2017)
Hourly Data Report for September 5, 2017
Temp Definition
°C
Dew Point Temp Definition
°C
Rel Hum Definition
%
Wind Dir Definition
10's deg

Wind Spd Definition
km/h
Visibility Definition
km
Stn Press Definition
kPa
Hmdx Definition


Wind Chill Definition


Weather Definition


TIME
00:00 Legend Double Dagger 16.2 12.6 79 19 11 16.1 100.51     LegendNANA
01:00 Legend Double Dagger 15.9 12.7 81 19 15 16.1 100.47     LegendNANA
02:00 Legend Double Dagger 14.7 12.6 87 20 11 16.1 100.44     LegendNANA
03:00 Legend Double Dagger 14.2 12.6 90 19 9 16.1 100.40     LegendNANA
04:00 Legend Double Dagger 15.6 13.5 87 16 18 16.1 100.34     LegendNANA
05:00 Legend Double Dagger 15.6 13.6 88 17 18 16.1 100.28     LegendNANA
06:00 Legend Double Dagger 15.6 13.8 89 19 18 16.1 100.35     LegendNANA
07:00 Legend Double Dagger 15.6 13.6 88 19 17 16.1 100.38     LegendNANA
08:00 Legend Double Dagger 17.0 14.2 83 19 13 16.1 100.42     LegendNANA
09:00 Legend Double Dagger 18.8 15.0 78 19 17 16.1 100.39     LegendNANA
10:00 Legend Double Dagger 20.7 15.5 72 20 28 16.1 100.45 25   LegendNANA
11:00 Legend Double Dagger 22.3 15.7 66 21 30 16.1 100.46 27   LegendNANA
12:00 Legend Double Dagger 23.5 16.1 63 20 22 16.1 100.41 28   LegendNANA
13:00 Legend Double Dagger 25.3 16.9 59 LegendMM LegendMM LegendMM 100.42 31   LegendNANA
14:00 Legend Double Dagger 25.0 17.0 61 20 24 16.1 100.44 30   LegendNANA
15:00 Legend Double Dagger 23.2 17.2 68 18 18 16.1 100.47 29   LegendNANA
16:00 Legend Double Dagger 22.6 17.0 70 18 22 16.1 100.51 28   LegendNANA
17:00 Legend Double Dagger 21.6 17.1 75 17 18 16.1 100.57 27   LegendNANA
18:00 Legend Double Dagger 20.0 16.7 81 17 15 16.1 100.59 25   LegendNANA
19:00 Legend Double Dagger 18.7 16.4 86 17 9 16.1 100.63     LegendNANA
20:00 Legend Double Dagger 18.2 16.4 89 17 13 16.1 100.72     LegendNANA
21:00 Legend Double Dagger 18.1 16.5 90 18 13 16.1 100.76     LegendNANA
22:00 Legend Double Dagger 17.8 16.7 93 15 15 16.1 100.76     LegendNANA
23:00 Legend Double Dagger 18.0 16.9 93 19 13 16.1 100.78     LegendNANA

Notes on Data Quality.

Legend

  • E = Estimated
  • M = Missing
  • NA = Not Available
  • ‡ = Partner data that is not subject to review by the National Climate Archives
Date modified: